SXM-8

Last updated on Tue Oct 28 2025 00:02:51 GMT+0000 (Coordinated Universal Time)

1 48838U 21049A 25300.38384720 -.00000194 00000+0 00000+0 0 9995 2 48838 0.0317 41.1635 0004576 2.4656 45.4059 1.00271285 16267
UTC large
Height (km)
Speed (km/s)
/
Latitude / Longitude
Inclination (degrees)
Orbital Period (minutes)
Azimuth
Elevation
Range (km)
Doppler Factor

Next 0 passes for location: London (51.5072 / 0.1276)

Sorry there are no passes over London.